Location: Chicoutimi
(48.4330°N, 71.0670°W)
Time: 01:11:12
(UTC-04:00)

ISS - Visible Passes

Search period start: 27 May 2018 00:00
Search period end: 06 June 2018 00:00
Orbit: 402 x 407 km, 51.6° (Epoch: 27 May)

Date Brightness Start Highest point End Pass type
(mag) Time Alt. Az. Time Alt. Az. Time Alt. Az.
27 May -3.2 00:34:25 10° WNW 00:36:54 48° WNW 00:36:54 48° WNW visible
27 May -2.7 22:05:33 10° WNW 22:08:44 45° N 22:11:54 10° ENE visible
27 May -3.7 23:42:12 10° WNW 23:45:29 72° NNE 23:46:13 49° E visible
28 May -2.8 21:13:13 10° W 21:16:26 49° N 21:19:38 10° ENE visible
28 May -3.2 22:49:58 10° WNW 22:53:13 56° NNE 22:55:35 17° E visible
29 May -2.2 00:26:33 10° WNW 00:28:12 25° W 00:28:12 25° W visible
29 May -2.9 21:57:43 10° WNW 22:00:55 48° N 22:04:06 10° E visible
29 May -4.0 23:34:15 10° WNW 23:37:31 70° SSW 23:37:36 69° SSW visible
30 May -3.8 22:42:00 10° WNW 22:45:17 81° NNE 22:47:02 25° ESE visible
31 May -1.5 00:18:51 10° W 00:19:40 15° W 00:19:40 15° W visible
31 May -3.4 21:49:44 10° WNW 21:53:00 60° NNE 21:56:14 10° E visible
31 May -3.0 23:26:21 10° WNW 23:29:07 36° SW 23:29:07 36° SW visible
01 Jun -3.7 22:33:59 10° WNW 22:37:13 59° SSW 22:38:35 30° SE visible
02 Jun -3.9 21:41:41 10° WNW 21:44:58 89° SSW 21:48:05 11° ESE visible
02 Jun -2.0 23:18:41 10° W 23:20:43 19° SW 23:20:43 19° SW visible
03 Jun -2.8 22:26:03 10° W 22:29:00 31° SW 22:30:14 23° S visible
04 Jun -3.4 21:33:36 10° WNW 21:36:49 50° SSW 21:39:47 11° SE visible
05 Jun -1.7 22:18:28 10° W 22:20:35 16° SW 22:22:00 13° SSW visible
